Time,TemperatureF,DewpointF,PressureIn,WindDirection,WindDirectionDegrees,WindSpeedMPH,WindSpeedGustMPH,Humidity,HourlyPrecipIn,Conditions,Clouds,dailyrainin,SoftwareType,DateUTC
2013-04-09 00:03:00,75.0,68.0,30.08,ESE,105,20.0,25.0,79,0.00,,,0.00,,2013-04-09 04:03:00,
2013-04-09 00:13:00,75.0,68.0,30.08,ESE,105,20.0,25.0,79,0.00,,,0.00,,2013-04-09 04:13:00,
2013-04-09 00:23:00,75.0,68.0,30.08,East,94,20.0,24.0,79,0.00,,,0.00,,2013-04-09 04:23:00,
2013-04-09 00:32:00,75.0,68.0,30.08,East,94,20.0,24.0,79,0.00,,,0.00,,2013-04-09 04:32:00,
2013-04-09 00:42:00,75.0,68.0,30.08,East,94,20.0,24.0,79,0.00,,,0.00,,2013-04-09 04:42:00,
2013-04-09 00:53:00,75.0,68.0,30.08,East,94,20.0,24.0,79,0.00,,,0.00,,2013-04-09 04:53:00,
2013-04-09 01:02:00,75.0,69.0,30.07,ESE,103,21.0,24.0,81,0.00,,,0.00,,2013-04-09 05:02:00,
2013-04-09 01:12:00,75.0,69.0,30.07,ESE,105,22.0,24.0,81,0.00,,,0.00,,2013-04-09 05:12:00,
2013-04-09 01:22:00,75.0,69.0,30.07,ESE,105,22.0,24.0,81,0.00,,,0.00,,2013-04-09 05:22:00,
2013-04-09 01:32:00,76.0,70.0,30.07,East,100,20.0,24.0,81,0.00,,,0.00,,2013-04-09 05:32:00,
2013-04-09 01:43:00,75.0,69.0,30.06,East,96,19.0,22.0,81,0.00,,,0.00,,2013-04-09 05:43:00,
2013-04-09 01:52:00,75.0,69.0,30.06,East,96,19.0,22.0,81,0.00,,,0.00,,2013-04-09 05:52:00,
2013-04-09 02:02:00,75.0,69.0,30.06,East,89,18.0,21.0,82,0.00,,,0.00,,2013-04-09 06:02:00,
2013-04-09 02:12:00,76.0,70.0,30.06,East,98,16.0,20.0,81,0.00,,,0.00,,2013-04-09 06:12:00,
2013-04-09 02:22:00,76.0,70.0,30.06,East,98,16.0,20.0,81,0.00,,,0.00,,2013-04-09 06:22:00,
2013-04-09 02:32:00,76.0,70.0,30.06,East,98,16.0,20.0,81,0.00,,,0.00,,2013-04-09 06:32:00,
2013-04-09 02:42:00,76.0,70.0,30.06,East,98,16.0,20.0,81,0.00,,,0.00,,2013-04-09 06:42:00,
2013-04-09 02:52:00,76.0,70.0,30.04,ESE,102,15.0,20.0,83,0.00,,,0.00,,2013-04-09 06:52:00,
2013-04-09 03:02:00,76.0,70.0,30.03,ESE,110,16.0,20.0,81,0.00,,,0.00,,2013-04-09 07:02:00,
2013-04-09 03:13:00,76.0,70.0,30.03,ESE,110,16.0,20.0,81,0.00,,,0.00,,2013-04-09 07:13:00,
2013-04-09 03:22:00,76.0,70.0,30.03,ESE,105,15.0,19.0,82,0.00,,,0.00,,2013-04-09 07:22:00,
2013-04-09 03:32:00,76.0,70.0,30.02,East,100,15.0,16.0,81,0.00,,,0.00,,2013-04-09 07:32:00,
2013-04-09 03:42:00,76.0,70.0,30.02,East,100,15.0,16.0,81,0.00,,,0.00,,2013-04-09 07:42:00,
2013-04-09 03:53:00,76.0,70.0,30.02,ESE,105,15.0,19.0,81,0.00,,,0.00,,2013-04-09 07:53:00,
2013-04-09 04:03:00,76.0,70.0,30.01,ESE,105,13.0,19.0,83,0.00,,,0.00,,2013-04-09 08:03:00,
2013-04-09 04:12:00,76.0,70.0,30.01,ESE,105,13.0,19.0,83,0.00,,,0.00,,2013-04-09 08:12:00,
2013-04-09 04:22:00,76.0,71.0,30.01,East,98,13.0,16.0,84,0.00,,,0.00,,2013-04-09 08:22:00,
2013-04-09 04:32:00,76.0,71.0,30.01,East,100,13.0,15.0,84,0.00,,,0.00,,2013-04-09 08:32:00,
2013-04-09 04:42:00,76.0,71.0,30.01,East,100,13.0,15.0,84,0.00,,,0.00,,2013-04-09 08:42:00,
2013-04-09 04:52:00,76.0,71.0,30.01,East,100,13.0,15.0,85,0.00,,,0.00,,2013-04-09 08:52:00,
2013-04-09 05:02:00,76.0,71.0,30.02,ESE,111,14.0,18.0,84,0.00,,,0.00,,2013-04-09 09:02:00,
2013-04-09 05:12:00,76.0,71.0,30.02,ESE,103,13.0,15.0,85,0.00,,,0.00,,2013-04-09 09:12:00,
2013-04-09 05:22:00,76.0,71.0,30.02,ESE,103,13.0,15.0,85,0.00,,,0.00,,2013-04-09 09:22:00,
2013-04-09 05:33:00,76.0,72.0,30.02,ESE,111,12.0,15.0,86,0.00,,,0.00,,2013-04-09 09:33:00,
2013-04-09 05:43:00,76.0,72.0,30.02,ESE,111,12.0,15.0,86,0.00,,,0.00,,2013-04-09 09:43:00,
2013-04-09 05:53:00,76.0,71.0,30.02,ESE,105,10.0,12.0,85,0.00,,,0.00,,2013-04-09 09:53:00,
2013-04-09 06:03:00,76.0,72.0,30.03,SE,135,9.0,11.0,86,0.00,,,0.00,,2013-04-09 10:03:00,
2013-04-09 06:13:00,76.0,72.0,30.03,SE,135,9.0,11.0,86,0.00,,,0.00,,2013-04-09 10:13:00,
2013-04-09 06:23:00,76.0,71.0,30.03,ESE,121,14.0,18.0,84,0.00,,,0.00,,2013-04-09 10:23:00,
2013-04-09 06:33:00,76.0,70.0,30.03,ESE,108,14.0,16.0,83,0.00,,,0.00,,2013-04-09 10:33:00,
2013-04-09 06:43:00,76.0,70.0,30.03,ESE,108,14.0,16.0,83,0.00,,,0.00,,2013-04-09 10:43:00,
2013-04-09 06:53:00,76.0,71.0,30.03,SE,132,12.0,16.0,85,0.00,,,0.00,,2013-04-09 10:53:00,
2013-04-09 07:02:00,76.0,71.0,30.03,ESE,111,13.0,16.0,85,0.00,,,0.00,,2013-04-09 11:02:00,
2013-04-09 07:12:00,76.0,71.0,30.03,ESE,111,13.0,16.0,85,0.00,,,0.00,,2013-04-09 11:12:00,
2013-04-09 07:22:00,76.0,71.0,30.04,ESE,116,13.0,19.0,84,0.00,,,0.00,,2013-04-09 11:22:00,
2013-04-09 07:32:00,76.0,70.0,30.04,East,101,14.0,18.0,83,0.00,,,0.00,,2013-04-09 11:32:00,
2013-04-09 07:42:00,76.0,70.0,30.04,East,101,14.0,18.0,83,0.00,,,0.00,,2013-04-09 11:42:00,
2013-04-09 07:52:00,76.0,70.0,30.04,ESE,107,14.0,19.0,83,0.00,,,0.00,,2013-04-09 11:52:00,
2013-04-09 08:02:00,76.0,70.0,30.04,ESE,113,17.0,21.0,81,0.00,,,0.00,,2013-04-09 12:02:00,
2013-04-09 08:12:00,76.0,70.0,30.04,ESE,113,17.0,21.0,81,0.00,,,0.00,,2013-04-09 12:12:00,
2013-04-09 08:22:00,76.0,69.0,30.05,ESE,118,18.0,23.0,79,0.00,,,0.00,,2013-04-09 12:22:00,
2013-04-09 08:32:00,77.0,70.0,30.06,ESE,109,19.0,23.0,79,0.00,,,0.00,,2013-04-09 12:32:00,
2013-04-09 08:42:00,77.0,70.0,30.06,ESE,109,19.0,23.0,79,0.00,,,0.00,,2013-04-09 12:42:00,
2013-04-09 08:53:00,77.0,70.0,30.06,ESE,113,19.0,23.0,78,0.00,,,0.00,,2013-04-09 12:53:00,
2013-04-09 09:03:00,77.0,70.0,30.06,ESE,113,19.0,23.0,80,0.00,,,0.00,,2013-04-09 13:03:00,
2013-04-09 09:12:00,77.0,70.0,30.06,ESE,113,19.0,23.0,80,0.00,,,0.00,,2013-04-09 13:12:00,
2013-04-09 09:23:00,77.0,71.0,30.07,ESE,107,20.0,24.0,81,0.00,,,0.00,,2013-04-09 13:23:00,
2013-04-09 09:33:00,77.0,70.0,30.08,ESE,105,18.0,22.0,80,0.00,,,0.00,,2013-04-09 13:33:00,
2013-04-09 09:43:00,77.0,70.0,30.08,ESE,105,18.0,22.0,80,0.00,,,0.00,,2013-04-09 13:43:00,
2013-04-09 09:53:00,77.0,70.0,30.09,ESE,109,15.0,22.0,80,0.00,,,0.00,,2013-04-09 13:53:00,
2013-04-09 10:03:00,77.0,71.0,30.09,ESE,104,15.0,21.0,81,0.00,,,0.00,,2013-04-09 14:03:00,
2013-04-09 10:12:00,77.0,71.0,30.09,ESE,104,15.0,21.0,81,0.00,,,0.00,,2013-04-09 14:12:00,
2013-04-09 10:22:00,77.0,71.0,30.09,ESE,117,18.0,21.0,81,0.00,,,0.00,,2013-04-09 14:22:00,
2013-04-09 10:32:00,77.0,71.0,30.09,SE,132,17.0,21.0,82,0.00,,,0.00,,2013-04-09 14:32:00,
2013-04-09 10:43:00,77.0,71.0,30.09,SE,132,17.0,21.0,82,0.00,,,0.00,,2013-04-09 14:43:00,
2013-04-09 10:52:00,77.0,71.0,30.09,ESE,110,18.0,21.0,82,0.00,,,0.00,,2013-04-09 14:52:00,
2013-04-09 11:02:00,77.0,71.0,30.09,East,98,14.0,20.0,83,0.00,,,0.00,,2013-04-09 15:02:00,
2013-04-09 11:13:00,77.0,71.0,30.09,East,98,14.0,20.0,83,0.00,,,0.00,,2013-04-09 15:13:00,
2013-04-09 11:23:00,77.0,71.0,30.09,ESE,103,18.0,22.0,83,0.00,,,0.00,,2013-04-09 15:23:00,
2013-04-09 11:33:00,77.0,72.0,30.10,ESE,111,16.0,21.0,84,0.00,,,0.00,,2013-04-09 15:33:00,
2013-04-09 11:43:00,77.0,72.0,30.10,ESE,111,16.0,21.0,84,0.00,,,0.00,,2013-04-09 15:43:00,
2013-04-09 11:54:00,77.0,71.0,30.10,ESE,105,19.0,21.0,83,0.00,,,0.00,,2013-04-09 15:54:00,
2013-04-09 12:03:00,77.0,71.0,30.09,ESE,109,21.0,24.0,83,0.00,,,0.00,,2013-04-09 16:03:00,
2013-04-09 12:13:00,77.0,71.0,30.09,ESE,109,21.0,24.0,83,0.00,,,0.00,,2013-04-09 16:13:00,
2013-04-09 12:23:00,77.0,71.0,30.09,ESE,115,20.0,24.0,82,0.00,,,0.00,,2013-04-09 16:23:00,
2013-04-09 12:33:00,77.0,71.0,30.09,ESE,111,21.0,25.0,82,0.00,,,0.00,,2013-04-09 16:33:00,
2013-04-09 12:42:00,77.0,71.0,30.09,ESE,111,21.0,25.0,82,0.00,,,0.00,,2013-04-09 16:42:00,
2013-04-09 12:54:00,77.0,71.0,30.09,ESE,104,16.0,24.0,83,0.00,,,0.00,,2013-04-09 16:54:00,
2013-04-09 13:02:00,78.0,72.0,30.09,ESE,121,20.0,22.0,82,0.00,,,0.00,,2013-04-09 17:02:00,
2013-04-09 13:13:00,78.0,72.0,30.09,ESE,121,20.0,22.0,82,0.00,,,0.00,,2013-04-09 17:13:00,
2013-04-09 13:23:00,77.0,71.0,30.09,ESE,121,20.0,23.0,83,0.00,,,0.00,,2013-04-09 17:23:00,
2013-04-09 13:32:00,78.0,72.0,30.09,ESE,105,20.0,23.0,82,0.00,,,0.00,,2013-04-09 17:32:00,
2013-04-09 13:43:00,78.0,72.0,30.09,ESE,105,20.0,23.0,82,0.00,,,0.00,,2013-04-09 17:43:00,
2013-04-09 13:54:00,78.0,73.0,30.08,ESE,110,20.0,24.0,84,0.00,,,0.00,,2013-04-09 17:54:00,
2013-04-09 14:02:00,78.0,73.0,30.07,ESE,103,22.0,25.0,84,0.00,,,0.00,,2013-04-09 18:02:00,
2013-04-09 14:13:00,78.0,73.0,30.07,ESE,103,22.0,25.0,84,0.00,,,0.00,,2013-04-09 18:13:00,
2013-04-09 14:23:00,78.0,73.0,30.07,ESE,103,22.0,27.0,85,0.00,,,0.00,,2013-04-09 18:23:00,
2013-04-09 14:33:00,78.0,73.0,30.06,ESE,107,24.0,27.0,84,0.00,,,0.00,,2013-04-09 18:33:00,
2013-04-09 14:43:00,78.0,73.0,30.06,ESE,107,24.0,27.0,84,0.00,,,0.00,,2013-04-09 18:43:00,
2013-04-09 14:53:00,78.0,73.0,30.06,ESE,103,24.0,27.0,84,0.00,,,0.00,,2013-04-09 18:53:00,
2013-04-09 15:03:00,78.0,73.0,30.06,ESE,103,24.0,27.0,84,0.00,,,0.00,,2013-04-09 19:03:00,
2013-04-09 15:12:00,78.0,73.0,30.06,ESE,103,24.0,27.0,84,0.00,,,0.00,,2013-04-09 19:12:00,
2013-04-09 15:22:00,78.0,73.0,30.06,ESE,103,24.0,27.0,84,0.00,,,0.00,,2013-04-09 19:22:00,
2013-04-09 15:32:00,78.0,72.0,30.05,ESE,109,25.0,28.0,83,0.00,,,0.00,,2013-04-09 19:32:00,
2013-04-09 15:42:00,78.0,72.0,30.05,ESE,109,25.0,28.0,83,0.00,,,0.00,,2013-04-09 19:42:00,
2013-04-09 15:53:00,77.0,72.0,30.05,East,101,23.0,27.0,84,0.00,,,0.00,,2013-04-09 19:53:00,
2013-04-09 16:02:00,77.0,71.0,30.04,East,98,25.0,27.0,83,0.00,,,0.00,,2013-04-09 20:02:00,
2013-04-09 16:12:00,77.0,72.0,30.04,East,96,24.0,26.0,84,0.00,,,0.00,,2013-04-09 20:12:00,
2013-04-09 16:22:00,77.0,72.0,30.04,East,96,24.0,26.0,84,0.00,,,0.00,,2013-04-09 20:22:00,
2013-04-09 16:33:00,77.0,72.0,30.04,ESE,109,23.0,27.0,84,0.00,,,0.00,,2013-04-09 20:33:00,
2013-04-09 16:43:00,77.0,72.0,30.04,ESE,109,23.0,27.0,84,0.00,,,0.00,,2013-04-09 20:43:00,
2013-04-09 16:53:00,77.0,71.0,30.03,ESE,105,24.0,28.0,83,0.00,,,0.00,,2013-04-09 20:53:00,
2013-04-09 17:02:00,78.0,72.0,30.03,ESE,111,24.0,27.0,83,0.00,,,0.00,,2013-04-09 21:02:00,
2013-04-09 17:13:00,78.0,72.0,30.03,ESE,111,24.0,27.0,83,0.00,,,0.00,,2013-04-09 21:13:00,
2013-04-09 17:22:00,78.0,72.0,30.03,ESE,111,24.0,27.0,83,0.00,,,0.00,,2013-04-09 21:22:00,
2013-04-09 17:33:00,78.0,72.0,30.03,ESE,111,22.0,26.0,82,0.00,,,0.00,,2013-04-09 21:33:00,
2013-04-09 17:42:00,78.0,72.0,30.03,ESE,111,22.0,26.0,82,0.00,,,0.00,,2013-04-09 21:42:00,
2013-04-09 17:53:00,77.0,71.0,30.03,ESE,104,24.0,26.0,81,0.00,,,0.00,,2013-04-09 21:53:00,
2013-04-09 18:03:00,78.0,72.0,30.03,SE,124,23.0,26.0,82,0.00,,,0.00,,2013-04-09 22:03:00,
2013-04-09 18:13:00,78.0,73.0,30.03,East,96,21.0,25.0,84,0.00,,,0.00,,2013-04-09 22:13:00,
2013-04-09 18:23:00,78.0,73.0,30.03,East,96,21.0,25.0,84,0.00,,,0.00,,2013-04-09 22:23:00,
2013-04-09 18:33:00,77.0,71.0,30.03,East,95,25.0,27.0,81,0.00,,,0.00,,2013-04-09 22:33:00,
2013-04-09 18:42:00,77.0,71.0,30.03,East,95,25.0,27.0,81,0.00,,,0.00,,2013-04-09 22:42:00,
2013-04-09 18:54:00,77.0,71.0,30.03,ESE,105,22.0,25.0,82,0.00,,,0.00,,2013-04-09 22:54:00,
2013-04-09 19:03:00,77.0,71.0,30.03,ESE,112,22.0,26.0,82,0.00,,,0.00,,2013-04-09 23:03:00,
2013-04-09 19:13:00,77.0,71.0,30.03,ESE,118,24.0,27.0,81,0.00,,,0.00,,2013-04-09 23:13:00,
2013-04-09 19:23:00,77.0,71.0,30.03,ESE,118,24.0,27.0,81,0.00,,,0.00,,2013-04-09 23:23:00,
2013-04-09 19:32:00,77.0,71.0,30.03,East,95,24.0,27.0,82,0.00,,,0.00,,2013-04-09 23:32:00,
2013-04-09 19:42:00,77.0,71.0,30.03,East,95,24.0,27.0,82,0.00,,,0.00,,2013-04-09 23:42:00,
2013-04-09 19:53:00,77.0,72.0,30.03,ESE,103,24.0,28.0,84,0.00,,,0.00,,2013-04-09 23:53:00,
2013-04-09 20:03:00,77.0,72.0,30.03,ESE,103,24.0,28.0,84,0.00,,,0.00,,2013-04-10 00:03:00,
2013-04-09 20:12:00,77.0,72.0,30.03,ESE,103,24.0,28.0,84,0.00,,,0.00,,2013-04-10 00:12:00,
2013-04-09 20:23:00,77.0,72.0,30.03,East,96,25.0,29.0,85,0.00,,,0.00,,2013-04-10 00:23:00,
2013-04-09 20:33:00,77.0,72.0,30.03,East,89,21.0,27.0,86,0.00,,,0.00,,2013-04-10 00:33:00,
2013-04-09 20:42:00,77.0,72.0,30.03,East,89,21.0,27.0,86,0.00,,,0.00,,2013-04-10 00:42:00,
2013-04-09 20:53:00,77.0,73.0,30.03,East,86,24.0,30.0,87,0.00,,,0.00,,2013-04-10 00:53:00,
2013-04-09 21:02:00,77.0,72.0,30.03,ESE,103,23.0,31.0,85,0.00,,,0.00,,2013-04-10 01:02:00,
2013-04-09 21:12:00,77.0,72.0,30.04,East,94,27.0,31.0,86,0.00,,,0.00,,2013-04-10 01:12:00,
2013-04-09 21:23:00,77.0,72.0,30.04,East,94,27.0,31.0,86,0.00,,,0.00,,2013-04-10 01:23:00,
2013-04-09 21:32:00,77.0,72.0,30.04,East,96,25.0,29.0,86,0.00,,,0.00,,2013-04-10 01:32:00,
2013-04-09 21:42:00,77.0,72.0,30.04,East,96,25.0,29.0,86,0.00,,,0.00,,2013-04-10 01:42:00,
2013-04-09 21:53:00,77.0,72.0,30.04,East,98,27.0,32.0,86,0.00,,,0.00,,2013-04-10 01:53:00,
2013-04-09 22:02:00,77.0,72.0,30.05,East,96,26.0,30.0,86,0.00,,,0.00,,2013-04-10 02:02:00,
2013-04-09 22:13:00,77.0,72.0,30.05,East,96,26.0,30.0,86,0.00,,,0.00,,2013-04-10 02:13:00,
2013-04-09 22:22:00,77.0,72.0,30.06,East,94,28.0,33.0,86,0.00,,,0.00,,2013-04-10 02:22:00,
2013-04-09 22:32:00,77.0,72.0,30.06,ESE,102,29.0,32.0,86,0.00,,,0.00,,2013-04-10 02:32:00,
2013-04-09 22:43:00,77.0,72.0,30.06,ESE,102,29.0,32.0,86,0.00,,,0.00,,2013-04-10 02:43:00,
2013-04-09 22:53:00,77.0,72.0,30.06,ESE,121,27.0,31.0,85,0.00,,,0.00,,2013-04-10 02:53:00,
2013-04-09 23:03:00,77.0,71.0,30.06,East,90,29.0,32.0,83,0.00,,,0.00,,2013-04-10 03:03:00,
2013-04-09 23:12:00,77.0,71.0,30.06,East,90,29.0,32.0,83,0.00,,,0.00,,2013-04-10 03:12:00,
2013-04-09 23:22:00,77.0,71.0,30.06,East,95,24.0,33.0,83,0.00,,,0.00,,2013-04-10 03:22:00,
2013-04-09 23:33:00,77.0,71.0,30.06,East,98,27.0,32.0,83,0.00,,,0.00,,2013-04-10 03:33:00,
2013-04-09 23:43:00,77.0,71.0,30.06,East,98,27.0,32.0,83,0.00,,,0.00,,2013-04-10 03:43:00,
2013-04-09 23:53:00,77.0,72.0,30.06,ESE,103,23.0,30.0,85,0.00,,,0.00,,2013-04-10 03:53:00,